Regional Weather Roundup
Issued by NWS

Home | Current Version | Previous Version | Graphics & Text | Print | Product List | Glossary On
Versions: 1 2 3 4 5 6 7 8 9 10 11 12 13 14 15 16 17 18 19 20 21 22 23 24 25 26 27
000
ASUS45 KBOU 191307
RWRCO

WEATHER ROUNDUP FOR COLORADO
NATIONAL WEATHER SERVICE DENVER/BOULDER CO
600 AM MST THU JAN 19 2017

NOTE: "FAIR" INDICATES FEW OR NO CLOUDS BELOW 12000 FEET WITH NO
SIGNIFICANT WEATHER AND/OR OBSTRUCTIONS TO VISIBILITY.

COZ001>005-013-030-031-191400-
...NORTHWEST COLORADO...

CITY           SKY/WX    TMP DP  RH WIND       PRES   REMARKS
CRAIG          FAIR       2  -3  80 W3        29.84F
HAYDEN         FAIR      12   7  79 E13       29.83F WCI  -3
MEEKER         FAIR      13   9  84 NE3       29.84F
MOUNT WERNER   NOT AVBL
STEAMBOAT SPGS FAIR       7   5  89 CALM      29.86S
WALDEN           N/A    N/A N/A N/A SE3       29.83F
$$

COZ006>008-011-191400-
...WEST CENTRAL VALLEYS...

CITY           SKY/WX    TMP DP  RH WIND       PRES   REMARKS
GRAND JUNCTION FAIR      30  25  81 E16       29.87F WCI  19
MONTROSE       FAIR      25  19  78 SE6       29.91F WCI  18
EAGLE          MOCLDY     6   3  87 CALM      29.96F
RIFLE          FAIR      20  17  88 CALM      29.89F
DELTA          FAIR      27  23  83 E3        29.91F
NUCLA          FAIR      28  19  69 E10       29.92S WCI  19
$$

COZ017>023-064>068-191400-
...SOUTHWEST COLORADO...

CITY           SKY/WX    TMP DP  RH WIND       PRES   REMARKS
DURANGO        FOG       25  23  92 E3        29.91S VSB 1/4
CORTEZ         FAIR      20  18  92 NE3       29.91F
PAGOSA SPRINGS FOG       24  24 100 CALM      29.90S VSB 1/2
TELLURIDE      FAIR      20  11  68 SE6       29.89F WCI  12
WOLF CREEK PAS   N/A     16  16 100 SW8       29.92F WCI   5
$$

COZ009-010-012-014-032>034-037-058>063-191400-
...CENTRAL COLORADO...

CITY           SKY/WX    TMP DP  RH WIND       PRES   REMARKS
ASPEN          FAIR      10   6  84 CALM      29.84F
BUENA VISTA    FAIR       7   3  82 E6        29.79S WCI  -3
COPPER MTN     FAIR      23   7  50 MISG      29.87F
BERTHOUD PASS  NOT AVBL
COTTONWOOD PAS FAIR      32   5  32 W14G22    29.79R WCI  22
GUNNISON       LGT SNOW  -1  -5  82 E3        29.98F FOG
KREMMLING      HAZE       7   1  78 CALM      29.96S VSB 3/4
LEADVILLE      FAIR      10   3  73 N5        29.83F WCI   2
MONARCH PASS   FLURRIES  16  10  79 NE5       29.92S WCI   9
SALIDA         FAIR      27  17  65 W8        29.86S WCI  19
SUNLIGHT       FAIR      18  12  79 S8        29.89F WCI   7
WILKERSON PASS FAIR      28   0  29 NW8G17    29.81S WCI  20
$$

COZ069>075-191400-
...SAN LUIS VALLEY/SANGRE DE CRISTO MOUNTAINS...

CITY           SKY/WX    TMP DP  RH WIND       PRES   REMARKS
ALAMOSA        CLOUDY    20  20 100 CALM      29.89S FOG
LA VETA PASS   CLOUDY    16  12  86 NE38G48   29.74S FOG     WCI  -6
SAGUACHE       CLOUDY    14  12  92 NW3       29.90R FOG
$$

COZ035-036-038>040-191400-
...NORTHERN COLORADO FRONT RANGE...

CITY           SKY/WX    TMP DP  RH WIND       PRES   REMARKS
DENVER INTL AP FAIR      24  15  68 S10       29.61S WCI  14
DMNS CITY PARK   N/A     28  14  55 SE5G12    29.62S WCI  23
AURORA         PTCLDY    30  14  51 S12       29.62F WCI  20
FRONT RANGE AP NOT AVBL
ERIE MUNI ARPT FAIR      21  17  85 CALM      29.61F
BOULDER MUN AP FAIR      32  19  59 S3        29.61S
CENTENNIAL     FAIR      27  13  55 S6        29.62F WCI  20
BROOMFIELD     CLEAR     36  16  44 W7        29.61F
FORT COLLINS   FAIR      23  16  74 CALM      29.62S
LONGMONT       FAIR      23  17  79 CALM      29.63S
$$

COZ041-046-047-076>085-087-088-191400-
...PIKES PEAK/PALMER DIVIDE AND SOUTHERN FOOTHILLS...

CITY           SKY/WX    TMP DP  RH WIND       PRES   REMARKS
COLO. SPRINGS  FAIR      33  10  38 N7        29.64S WCI  27
A. F. ACADEMY  FAIR      22  11  62 NW9       29.63S WCI  12
SCHRIEVER AFB  NOT AVBL
ELLICOTT       FAIR     N/A N/A N/A CALM      29.62R
FALCON         FAIR      32   9  37 N7        29.65S WCI  26
FORT CARSON    CLEAR     36  10  35 S8        29.64S
LIMON          FAIR      19  13  77 NW5       29.62S WCI  12
MONUMENT HILL  FAIR      28   9  43 W6        29.66S WCI  22
TRINIDAD       FAIR      24  13  62 W17       29.64R WCI  11
$$

COZ042>045-048>051-090-091-191400-
...NORTHEAST COLORADO...

CITY           SKY/WX    TMP DP  RH WIND       PRES   REMARKS
GREELEY ARPT   FAIR      19  17  92 CALM      29.63F
AKRON          FAIR      24  19  81 W12       29.60F WCI  13
BURLINGTON     FAIR      27  20  75 CALM      29.60F
WRAY           FAIR      21  18  86 W6        29.61  WCI  14
STERLING       FAIR      16  14  93 S7        29.62S WCI   6
HOLYOKE        FAIR      19  14  79 W6        29.61S WCI  11
FORT MORGAN    FAIR      22  19  91 W7        29.62S WCI  13
$$

COZ086-089-092>099-191400-
...SOUTHEAST COLORADO...

CITY           SKY/WX    TMP DP  RH WIND       PRES   REMARKS
PUEBLO         FAIR      22  17  81 E5        29.62S WCI  16
LA JUNTA       FAIR      21  17  84 W15       29.62R WCI   8
LAMAR          FAIR      17  14  88 SW8       29.60F WCI   7
SPRINGFIELD      N/A     28  22  78 NW13      29.57S WCI  17
$$




USA.gov is the U.S. government's official web portal to all federal, state and local government web resources and services.